Météo Nord-Pas-de-Calais   La météo au plus près de chez vous

Station météorologique

Observations météo à Batz (29082)

29082001 32 m Dernier relevé à 12:00
20.2°C
Vent 22 km/h

Journée consultée

Vendredi 4 Septembre 2026

Synthèse de la journée

Périodes de référence en UTC

Température maximale

20.6°C

à 11:18

06h 06h

Température minimale

18.4°C

à 04:48

18h 18h

Rafale maximale

44 km/h

à 12:00

00h 00h

Précipitations

0 mm

Cumul quotidien

06h 06h

Graphiques de la journée

Heure locale Réduire

Données détaillées

Relevés météo

Pas de 6 minutes Afficher les relevés infra-horaires
Relevés météo détaillés à Batz pour le Vendredi 4 Septembre 2026
Heure Température °C Vent moyen (raf.), km/h Précipitations mm
12:00 20.2 °C 32 km/h (44 km/h) 0 mm0 mm
11:54 20.1 °C 30 km/h (43 km/h) 0 mm0 mm
11:48 20 °C 27 km/h (41 km/h) 0 mm0 mm
11:42 20 °C 27 km/h (41 km/h) 0 mm0 mm
11:36 20.1 °C 26 km/h (35 km/h) 0 mm0 mm
11:30 20.4 °C 25 km/h (41 km/h) 0 mm0 mm
11:24 20.6 °C 25 km/h (41 km/h) 0 mm0 mm
11:18 20.6 °C 24 km/h (36 km/h) 0 mm0 mm
11:12 20.5 °C 24 km/h (35 km/h) 0 mm0 mm
11:06 20.4 °C 23 km/h (32 km/h) 0 mm0 mm
11:00 20.2 °C 22 km/h (32 km/h) 0 mm0 mm
10:54 20 °C 20 km/h (31 km/h) 0 mm0 mm
10:48 19.9 °C 20 km/h (31 km/h) 0 mm0 mm
10:42 19.8 °C 19 km/h (29 km/h) 0 mm0 mm
10:36 19.7 °C 18 km/h (29 km/h) 0 mm0 mm
10:30 19.7 °C 19 km/h (27 km/h) 0 mm0 mm
10:24 19.7 °C 19 km/h (28 km/h) 0 mm0 mm
10:18 19.6 °C 19 km/h (30 km/h) 0 mm0 mm
10:12 19.5 °C 20 km/h (30 km/h) 0 mm0 mm
10:06 19.4 °C 20 km/h (31 km/h) 0 mm0 mm
10:00 19.3 °C 21 km/h (31 km/h) 0 mm0 mm
09:54 19.3 °C 22 km/h (31 km/h) 0 mm0 mm
09:48 19.3 °C 22 km/h (31 km/h) 0 mm0 mm
09:42 19.2 °C 23 km/h (31 km/h) 0 mm0 mm
09:36 19.1 °C 21 km/h (28 km/h) 0 mm0 mm
09:30 19 °C 20 km/h (27 km/h) 0 mm0 mm
09:24 19 °C 19 km/h (27 km/h) 0 mm0 mm
09:18 18.9 °C 18 km/h (28 km/h) 0 mm0 mm
09:12 18.9 °C 18 km/h (28 km/h) 0 mm0 mm
09:06 18.8 °C 19 km/h (29 km/h) 0 mm0 mm
09:00 18.9 °C 21 km/h (29 km/h) 0 mm0 mm
08:54 18.8 °C 19 km/h (28 km/h) 0 mm0 mm
08:48 18.8 °C 19 km/h (28 km/h) 0 mm0 mm
08:42 18.8 °C 19 km/h (27 km/h) 0 mm0 mm
08:36 18.8 °C 19 km/h (28 km/h) 0 mm0 mm
08:30 18.8 °C 18 km/h (28 km/h) 0 mm0 mm
08:24 18.8 °C 18 km/h (28 km/h) 0 mm0 mm
08:18 18.7 °C 17 km/h (28 km/h) 0 mm0 mm
08:12 18.7 °C 18 km/h (27 km/h) 0 mm0 mm
08:06 18.6 °C 19 km/h (27 km/h) 0 mm0 mm
08:00 18.6 °C 18 km/h (26 km/h) 0 mm0 mm
07:54 18.6 °C 17 km/h (25 km/h) 0 mm0 mm
07:48 18.5 °C 15 km/h (23 km/h) 0 mm0 mm
07:42 18.4 °C 15 km/h (23 km/h) 0 mm0 mm
07:36 18.4 °C 15 km/h (22 km/h) 0 mm0 mm
07:30 18.4 °C 14 km/h (24 km/h) 0 mm0 mm
07:24 18.4 °C 14 km/h (24 km/h) 0 mm0 mm
07:18 18.4 °C 15 km/h (23 km/h) 0 mm0 mm
07:12 18.4 °C 16 km/h (23 km/h) 0 mm0 mm
07:06 18.5 °C 17 km/h (24 km/h) 0 mm0 mm
07:00 18.5 °C 17 km/h (25 km/h) 0 mm0 mm
06:54 18.5 °C 17 km/h (25 km/h) 0 mm0 mm
06:48 18.5 °C 17 km/h (24 km/h) 0 mm0 mm
06:42 18.6 °C 15 km/h (24 km/h) 0 mm0 mm
06:36 18.6 °C 15 km/h (23 km/h) 0 mm0 mm
06:30 18.5 °C 15 km/h (22 km/h) 0 mm0 mm
06:24 18.5 °C 15 km/h (22 km/h) 0 mm0 mm
06:18 18.6 °C 15 km/h (24 km/h) 0 mm0 mm
06:12 18.5 °C 17 km/h (24 km/h) 0 mm0 mm
06:06 18.6 °C 17 km/h (24 km/h) 0 mm0 mm
06:00 18.6 °C 17 km/h (30 km/h) 0 mm0 mm
05:54 18.6 °C 18 km/h (34 km/h) 0 mm0 mm
05:48 18.5 °C 18 km/h (34 km/h) 0 mm0 mm
05:42 18.5 °C 17 km/h (27 km/h) 0 mm0 mm
05:36 18.5 °C 16 km/h (23 km/h) 0 mm0 mm
05:30 18.5 °C 15 km/h (25 km/h) 0 mm0 mm
05:24 18.5 °C 16 km/h (25 km/h) 0 mm0 mm
05:18 18.5 °C 16 km/h (25 km/h) 0 mm0 mm
05:12 18.5 °C 17 km/h (27 km/h) 0 mm0 mm
05:06 18.5 °C 18 km/h (28 km/h) 0 mm0 mm
05:00 18.5 °C 17 km/h (28 km/h) 0 mm0 mm
04:54 18.5 °C 16 km/h (24 km/h) 0 mm0 mm
04:48 18.4 °C 16 km/h (24 km/h) 0 mm0 mm
04:42 18.5 °C 16 km/h (26 km/h) 0 mm0 mm
04:36 18.5 °C 16 km/h (26 km/h) 0 mm0 mm
04:30 18.5 °C 16 km/h (24 km/h) 0 mm0 mm
04:24 18.5 °C 17 km/h (24 km/h) 0 mm0 mm
04:18 18.6 °C 18 km/h (27 km/h) 0 mm0 mm
04:12 18.6 °C 18 km/h (27 km/h) 0 mm0 mm
04:06 18.6 °C 17 km/h (28 km/h) 0 mm0 mm
04:00 18.6 °C 19 km/h (28 km/h) 0 mm0 mm
03:54 18.6 °C 19 km/h (27 km/h) 0 mm0 mm
03:48 18.6 °C 18 km/h (26 km/h) 0 mm0 mm
03:42 18.6 °C 19 km/h (26 km/h) 0 mm0 mm
03:36 18.6 °C 18 km/h (25 km/h) 0 mm0 mm
03:30 18.6 °C 18 km/h (25 km/h) 0 mm0 mm
03:24 18.6 °C 18 km/h (27 km/h) 0 mm0 mm
03:18 18.6 °C 18 km/h (27 km/h) 0 mm0 mm
03:12 18.6 °C 18 km/h (26 km/h) 0 mm0 mm
03:06 18.6 °C 17 km/h (26 km/h) 0 mm0 mm
03:00 18.6 °C 18 km/h (27 km/h) 0 mm0 mm
02:54 18.6 °C 17 km/h (25 km/h) 0 mm0 mm
02:48 18.6 °C 17 km/h (25 km/h) 0 mm0 mm
02:42 18.6 °C 17 km/h (26 km/h) 0 mm0 mm
02:36 18.6 °C 17 km/h (24 km/h) 0 mm0 mm
02:30 18.6 °C 18 km/h (26 km/h) 0 mm0 mm
02:24 18.6 °C 18 km/h (28 km/h) 0 mm0 mm
02:18 18.6 °C 19 km/h (27 km/h) 0 mm0 mm
02:12 18.6 °C 20 km/h (28 km/h) 0 mm0 mm
02:06 18.6 °C 20 km/h (28 km/h) 0 mm0 mm
02:00 18.7 °C 21 km/h (29 km/h) 0 mm0 mm
01:54 18.7 °C 21 km/h (30 km/h) 0 mm0 mm
01:48 18.7 °C 20 km/h (30 km/h) 0 mm0 mm
01:42 18.7 °C 19 km/h (27 km/h) 0 mm0 mm
01:36 18.8 °C 19 km/h (31 km/h) 0 mm0 mm
01:30 18.8 °C 19 km/h (31 km/h) 0 mm0 mm
01:24 18.8 °C 18 km/h (30 km/h) 0 mm0 mm
01:18 18.8 °C 20 km/h (30 km/h) 0 mm0 mm
01:12 18.7 °C 19 km/h (33 km/h) 0 mm0 mm
01:06 18.7 °C 20 km/h (33 km/h) 0 mm0 mm
01:00 18.7 °C 20 km/h (32 km/h) 0 mm0 mm
00:54 18.7 °C 19 km/h (29 km/h) 0 mm0 mm
00:48 18.7 °C 18 km/h (31 km/h) 0 mm0 mm
00:42 18.7 °C 17 km/h (31 km/h) 0 mm0 mm
00:36 18.7 °C 17 km/h (24 km/h) 0 mm0 mm
00:30 18.7 °C 16 km/h (24 km/h) 0 mm0 mm
00:24 18.7 °C 17 km/h (26 km/h) 0 mm0 mm
00:18 18.7 °C 17 km/h (27 km/h) 0 mm0 mm
00:12 18.7 °C 16 km/h (24 km/h) 0 mm0 mm
00:06 18.7 °C 16 km/h (25 km/h) 0 mm0 mm
00:00 18.7 °C 16 km/h (23 km/h) 0 mm0 mm

Données via Météo-France

Relevés météo à Batz

Cette page rassemble les observations de la station de Batz : température, humidité, vent, précipitations et pression atmosphérique. Les graphiques facilitent le suivi de la journée, tandis que le tableau donne accès aux mesures horaires et infra-horaires disponibles.

Pour replacer ces mesures dans leur contexte, consultez la climatologie de Batz ainsi que ses normales et records. Retrouvez aussi la carte des observations météo en temps réel.